#timestamp,LO_Frequency,Hit 
1503223215.1,286046999.8,N
1503223216.0,286046999.8,N
1503223235.8,286047005.9,N
1503223255.6,286047006.5,N
1503223275.5,286047006.8,N
1503223295.3,286047003.9,N
1503223315.1,286047004.4,N
1503223335.8,286047002.0,N
1503223355.7,286047003.0,N
1503223375.5,286047007.9,N
1503223395.3,286047006.3,N
1503223415.2,286047005.1,N
1503223435.9,286047004.6,N
1503223455.7,286047007.1,N
1503223475.6,286047008.6,N
1503223495.4,286047009.0,N
1503223515.2,286047010.3,N
1503223535.1,286047007.6,N
1503223536.0,286047007.6,N
1503223555.8,286047004.8,N
1503223575.6,286047005.3,N
1503223595.5,286047004.2,N
1503223615.3,286047005.3,N
1503223635.1,286047006.4,N
1503223655.8,286047004.6,N
1503223675.7,286047010.7,P
1503223695.5,286047003.6,N
1503223715.4,286047002.3,N
1503223735.2,286046998.1,N
1503223755.0,286046998.8,N
1503223755.9,286046998.8,N
1503223775.8,286047000.9,N
1503223795.6,286046997.3,N
1503223815.4,286046997.6,N
1503223835.2,286047001.0,N
1503223855.1,286047000.3,N
1503223856.0,286047000.3,N
1503223875.8,286047004.2,N
1503223895.6,286046998.4,N
1503223915.5,286046997.5,N
1503223935.3,286046996.7,N
1503223955.1,286046995.7,N
1503223975.9,286046993.3,N
1503223995.7,286046992.1,N
1503224015.5,286046997.5,N
1503224035.4,286046997.1,N
1503224055.2,286046996.7,N
1503224075.0,286046997.5,N
1503224075.9,286046997.5,N
1503224095.8,286046999.6,N
1503224115.6,286046997.0,N
1503224135.4,286046998.3,N
1503224155.3,286047002.5,N
1503224175.1,286047001.7,N
1503224176.0,286047001.7,N
1503224195.8,286047004.2,N
1503224215.7,286047003.8,N
1503224235.5,286047003.4,N
1503224255.3,286047003.2,N
1503224275.2,286047005.9,N
1503224295.9,286047004.2,N
1503224315.7,286047003.8,N
1503224335.5,286047004.3,N
1503224355.4,286047001.6,N
1503224375.2,286047003.6,N
1503224395.0,286047006.6,N
1503224395.9,286047006.6,N
1503224415.8,286047006.6,N
1503224435.6,286047006.9,N
1503224455.4,286047007.2,N
1503224475.3,286047006.2,N
1503224495.1,286047001.3,N
1503224515.8,286047008.9,N
1503224535.7,286047010.4,N
1503224555.5,286047009.5,N
1503224575.3,286047009.8,N
1503224595.2,286047007.8,N
1503224615.9,286047008.5,N
1503224635.7,286047006.6,N
1503224655.6,286047005.7,N
1503224675.4,286047003.8,N
1503224695.2,286047002.9,N
1503224715.0,286047007.1,N
1503224716.0,286047007.1,N
1503224735.8,286047006.9,N
1503224755.6,286047003.8,N
1503224775.4,286047005.7,N
1503224795.3,286047007.4,P
1503224815.1,286046999.5,N
1503224835.8,286046998.7,N
1503224855.7,286046998.4,N
1503224875.5,286046999.3,N
1503224895.3,286046995.1,N
1503224915.2,286046997.4,N
1503224935.0,286046996.7,N
1503224935.9,286046996.7,N
1503224955.7,286046996.9,N
1503224975.6,286046997.7,N
1503224995.4,286046994.1,N
1503225015.2,286046991.7,N
1503225035.1,286046991.4,N
1503225036.0,286046991.4,N
1503225055.8,286046991.4,N
1503225075.6,286046992.3,N
1503225095.5,286046990.5,N
1503225115.3,286046990.9,N
1503225135.1,286046990.2,N
1503225155.9,286046988.6,N
1503225175.7,286046988.3,N
1503225195.5,286046984.2,P
1503225215.4,286046989.5,N
1503225235.2,286046991.4,N
1503225255.0,286046990.5,N
1503225255.9,286046990.5,N
1503225275.8,286046991.3,N
1503225295.6,286046994.8,N
1503225315.4,286046993.8,N
1503225335.3,286046990.1,P
1503225355.1,286047002.4,P
1503225356.0,286047002.4,N
1503225375.8,286047001.8,N
1503225395.7,286047003.6,N
1503225415.5,286047005.8,N
1503225435.3,286047006.0,N
1503225455.1,286047004.9,N
1503225475.9,286047006.9,N
1503225495.7,286047003.4,N
1503225515.5,286047003.9,N
1503225535.4,286047002.6,N
1503225555.2,286047003.0,N
1503225575.0,286047004.5,N
1503225575.9,286047004.5,N
1503225595.8,286047006.3,N
1503225615.6,286047001.7,N
1503225635.4,286047004.0,N
1503225655.3,286047002.5,N
1503225675.1,286047002.7,N
1503225676.0,286047002.7,N
1503225695.8,286046998.3,N
1503225715.7,286046996.9,N
1503225735.5,286046998.2,N
1503225755.3,286047000.4,N
1503225775.2,286047003.6,N
1503225795.9,286047004.9,N
1503225815.7,286047003.1,N
1503225835.6,286047009.0,N
1503225855.4,286047006.6,N
1503225875.2,286047005.7,N
1503225895.0,286047003.3,N
1503225896.0,286047003.3,N
1503225915.8,286047001.8,N
1503225935.6,286047003.6,N
1503225955.4,286047001.7,N
1503225975.3,286047004.1,N
1503225995.1,286047003.0,N
1503226015.8,286047003.6,N
1503226035.7,286047003.5,N
1503226055.5,286047002.5,N
1503226075.3,286046999.9,N
1503226095.2,286047002.0,N
1503226115.9,286047000.2,N
1503226135.7,286047003.8,N
1503226155.6,286047001.6,N
1503226175.4,286047000.6,N
1503226195.2,286046998.1,N
1503226215.1,286047001.1,N
1503226216.0,286047001.1,N
1503226235.8,286047002.8,N
1503226255.6,286046999.7,N
1503226275.5,286047002.8,N
1503226295.3,286046996.6,N
1503226315.1,286046996.9,N
1503226335.8,286046998.9,N
1503226355.7,286046996.7,N
1503226375.5,286046999.0,N
1503226395.3,286047000.1,N
1503226415.2,286046997.2,N
1503226435.9,286046996.3,N
1503226455.7,286046994.6,N
1503226475.6,286046992.4,N
1503226495.4,286046993.7,N
1503226515.2,286046995.7,N
1503226535.1,286046993.8,N
1503226536.0,286046993.8,N
1503226555.8,286046996.1,N
1503226575.6,286046996.8,N
1503226595.5,286046997.4,N
1503226615.3,286046998.7,N
1503226635.1,286047000.3,N
1503226655.8,286047000.8,N
1503226675.7,286047001.6,N
1503226695.5,286047004.4,N
1503226715.3,286047002.3,N
1503226735.2,286047002.7,N
1503226755.0,286047002.4,N
1503226755.9,286047002.4,N
1503226775.7,286047003.5,N
1503226795.6,286047005.9,N
